• In Uzbekistan
  • List of Countries
  • For 7 days
  • Water Temperature
  • Weather Map
  • Weather Widgets
  • user-avatar
    Login

    Hourly Weather Konstantyna

    Today, 19 January, Sunday

    Time Temperature Precipitation Wind Pressure Humidity
    00:00 +7°C° 0 mm 2 mps 714 mmHg 68%
    01:00 +6°C° 0 mm 2 mps 713 mmHg 69%
    02:00 +6°C° 0 mm 2 mps 713 mmHg 69%
    03:00 +6°C° 0 mm 2 mps 712 mmHg 69%
    04:00 +6°C° 0 mm 2 mps 712 mmHg 69%
    05:00 +6°C° 0 mm 2 mps 711 mmHg 70%
    06:00 +6°C° 0 mm 2 mps 711 mmHg 70%
    07:00 +7°C° 0 mm 2 mps 710 mmHg 66%
    08:00 +9°C° 0 mm 2 mps 710 mmHg 61%
    09:00 +10°C° 0 mm 2 mps 710 mmHg 57%
    10:00 +11°C° 0 mm 3 mps 710 mmHg 53%
    11:00 +13°C° 0 mm 4 mps 710 mmHg 49%
    12:00 +14°C° 0 mm 5 mps 709 mmHg 46%
    13:00 +13°C° 0 mm 5 mps 709 mmHg 49%
    14:00 +13°C° 0 mm 5 mps 709 mmHg 52%
    15:00 +12°C° 0 mm 4 mps 708 mmHg 55%
    16:00 +11°C° 0.1 mm 4 mps 708 mmHg 60%
    17:00 +9°C° 0.1 mm 3 mps 708 mmHg 65%
    18:00 +8°C° 0.1 mm 2 mps 707 mmHg 70%
    19:00 +8°C° 0 mm 2 mps 708 mmHg 71%
    20:00 +7°C° 0 mm 2 mps 708 mmHg 72%
    21:00 +7°C° 0 mm 2 mps 708 mmHg 73%
    22:00 +7°C° 0 mm 2 mps 708 mmHg 73%
    23:00 +7°C° 0 mm 2 mps 708 mmHg 73%

    Tomorrow, 20 January, Monday

    Time Temperature Precipitation Wind Pressure Humidity
    00:00 +6°C° 0 mm 2 mps 708 mmHg 73%
    01:00 +6°C° 0 mm 2 mps 708 mmHg 74%
    02:00 +6°C° 0 mm 2 mps 708 mmHg 74%
    03:00 +6°C° 0 mm 2 mps 707 mmHg 75%
    04:00 +6°C° 0 mm 2 mps 707 mmHg 76%
    05:00 +7°C° 0 mm 1 mps 708 mmHg 77%
    06:00 +7°C° 0 mm 1 mps 708 mmHg 78%
    07:00 +8°C° 0 mm 1 mps 708 mmHg 75%
    08:00 +8°C° 0 mm 2 mps 708 mmHg 72%
    09:00 +9°C° 0 mm 2 mps 709 mmHg 69%
    10:00 +10°C° 0 mm 3 mps 709 mmHg 61%
    11:00 +11°C° 0 mm 3 mps 709 mmHg 54%
    12:00 +13°C° 0 mm 4 mps 709 mmHg 46%
    13:00 +14°C° 0 mm 4 mps 709 mmHg 45%
    14:00 +14°C° 0 mm 5 mps 708 mmHg 44%
    15:00 +15°C° 0 mm 5 mps 708 mmHg 43%
    16:00 +13°C° 0 mm 5 mps 708 mmHg 46%
    17:00 +12°C° 0 mm 5 mps 708 mmHg 49%
    18:00 +9°C° 0 mm 6 mps 708 mmHg 52%
    19:00 +8°C° 0 mm 6 mps 708 mmHg 54%
    20:00 +8°C° 0 mm 7 mps 709 mmHg 56%
    21:00 +8°C° 0 mm 7 mps 709 mmHg 58%
    22:00 +8°C° 0 mm 7 mps 709 mmHg 58%
    23:00 +8°C° 0 mm 6 mps 709 mmHg 57%

    Day after tomorrow, 21 January, Tuesday

    Time Temperature Precipitation Wind Pressure Humidity
    00:00 +8°C° 0 mm 6 mps 709 mmHg 56%
    01:00 +8°C° 0 mm 6 mps 709 mmHg 57%
    02:00 +8°C° 0 mm 6 mps 709 mmHg 57%
    03:00 +8°C° 0 mm 7 mps 708 mmHg 57%
    04:00 +6°C° 0 mm 7 mps 708 mmHg 57%
    05:00 +6°C° 0 mm 7 mps 708 mmHg 58%
    06:00 +6°C° 0 mm 7 mps 708 mmHg 59%
    07:00 +7°C° 0 mm 8 mps 709 mmHg 57%
    08:00 +8°C° 0 mm 10 mps 709 mmHg 55%
    09:00 +9°C° 0 mm 11 mps 709 mmHg 53%
    10:00 +12°C° 0 mm 12 mps 709 mmHg 48%
    11:00 +14°C° 0 mm 12 mps 709 mmHg 43%
    12:00 +15°C° 0 mm 13 mps 709 mmHg 38%
    13:00 +15°C° 0 mm 12 mps 709 mmHg 38%
    14:00 +15°C° 0 mm 12 mps 709 mmHg 38%
    15:00 +16°C° 0 mm 11 mps 709 mmHg 38%
    16:00 +13°C° 0 mm 10 mps 709 mmHg 42%
    17:00 +11°C° 0 mm 9 mps 709 mmHg 46%
    18:00 +10°C° 0 mm 8 mps 710 mmHg 51%
    19:00 +9°C° 0 mm 7 mps 710 mmHg 54%
    20:00 +9°C° 0 mm 7 mps 710 mmHg 57%
    21:00 +8°C° 0 mm 7 mps 710 mmHg 61%
    22:00 +8°C° 0 mm 7 mps 710 mmHg 62%
    23:00 +8°C° 0 mm 7 mps 710 mmHg 63%

    22 January, Wednesday

    Time Temperature Precipitation Wind Pressure Humidity
    00:00 +8°C° 0 mm 7 mps 710 mmHg 64%
    01:00 +8°C° 0 mm 7 mps 710 mmHg 63%
    02:00 +8°C° 0 mm 7 mps 710 mmHg 63%
    03:00 +7°C° 0 mm 8 mps 710 mmHg 62%
    04:00 +8°C° 0 mm 7 mps 710 mmHg 60%
    05:00 +8°C° 0 mm 7 mps 710 mmHg 59%
    06:00 +8°C° 0 mm 7 mps 710 mmHg 57%
    07:00 +10°C° 0 mm 7 mps 710 mmHg 54%
    08:00 +11°C° 0 mm 8 mps 711 mmHg 51%
    09:00 +12°C° 0 mm 8 mps 712 mmHg 48%
    10:00 +15°C° 0 mm 8 mps 712 mmHg 43%
    11:00 +17°C° 0 mm 9 mps 712 mmHg 39%
    12:00 +19°C° 0 mm 9 mps 712 mmHg 35%
    13:00 +18°C° 0 mm 9 mps 711 mmHg 37%
    14:00 +18°C° 0 mm 8 mps 711 mmHg 39%
    15:00 +18°C° 0 mm 7 mps 711 mmHg 41%
    16:00 +16°C° 0 mm 7 mps 711 mmHg 46%
    17:00 +14°C° 0 mm 7 mps 711 mmHg 52%
    18:00 +11°C° 0 mm 6 mps 711 mmHg 57%
    19:00 +10°C° 0 mm 5 mps 711 mmHg 61%
    20:00 +10°C° 0 mm 4 mps 712 mmHg 65%
    21:00 +9°C° 0 mm 3 mps 712 mmHg 69%
    22:00 +9°C° 0 mm 2 mps 712 mmHg 70%
    23:00 +9°C° 0 mm 2 mps 712 mmHg 71%

    23 January, Thursday

    Time Temperature Precipitation Wind Pressure Humidity
    00:00 +9°C° 0 mm 1 mps 712 mmHg 72%
    01:00 +9°C° 0 mm 1 mps 712 mmHg 72%
    02:00 +9°C° 0 mm 1 mps 712 mmHg 72%
    03:00 +8°C° 0 mm 1 mps 711 mmHg 72%
    04:00 +8°C° 0 mm 1 mps 711 mmHg 73%
    05:00 +8°C° 0 mm 1 mps 711 mmHg 73%
    06:00 +8°C° 0 mm 1 mps 711 mmHg 73%
    07:00 +10°C° 0 mm 1 mps 711 mmHg 68%
    08:00 +10°C° 0 mm 2 mps 711 mmHg 62%
    09:00 +13°C° 0 mm 2 mps 711 mmHg 56%
    10:00 +14°C° 0 mm 3 mps 711 mmHg 50%
    11:00 +17°C° 0 mm 3 mps 711 mmHg 44%
    12:00 +19°C° 0 mm 4 mps 711 mmHg 38%
    13:00 +19°C° 0 mm 4 mps 711 mmHg 38%
    14:00 +20°C° 0 mm 4 mps 710 mmHg 37%
    15:00 +20°C° 0 mm 4 mps 710 mmHg 36%
    16:00 +18°C° 0 mm 3 mps 710 mmHg 41%
    17:00 +14°C° 0 mm 3 mps 710 mmHg 47%
    18:00 +12°C° 0 mm 3 mps 710 mmHg 52%
    19:00 +12°C° 0 mm 2 mps 710 mmHg 55%
    20:00 +10°C° 0 mm 2 mps 710 mmHg 58%
    21:00 +9°C° 0 mm 2 mps 711 mmHg 61%
    22:00 +9°C° 0 mm 2 mps 711 mmHg 61%
    23:00 +8°C° 0 mm 2 mps 711 mmHg 62%

    24 January, Friday

    Time Temperature Precipitation Wind Pressure Humidity
    00:00 +8°C° 0 mm 2 mps 711 mmHg 62%
    01:00 +8°C° 0 mm 2 mps 711 mmHg 62%
    02:00 +7°C° 0 mm 2 mps 711 mmHg 63%
    03:00 +7°C° 0 mm 2 mps 711 mmHg 63%
    04:00 +7°C° 0 mm 2 mps 711 mmHg 63%
    05:00 +7°C° 0 mm 2 mps 712 mmHg 62%
    06:00 +6°C° 0 mm 2 mps 712 mmHg 62%
    07:00 +8°C° 0 mm 2 mps 713 mmHg 58%
    08:00 +10°C° 0 mm 2 mps 713 mmHg 53%
    09:00 +13°C° 0 mm 2 mps 714 mmHg 48%
    10:00 +13°C° 0 mm 3 mps 714 mmHg 44%
    11:00 +14°C° 0 mm 3 mps 714 mmHg 39%
    12:00 +16°C° 0 mm 3 mps 714 mmHg 34%
    13:00 +16°C° 0 mm 3 mps 714 mmHg 34%
    14:00 +16°C° 0 mm 3 mps 714 mmHg 34%
    15:00 +16°C° 0 mm 2 mps 714 mmHg 34%
    16:00 +15°C° 0 mm 2 mps 713 mmHg 39%
    17:00 +13°C° 0 mm 2 mps 713 mmHg 43%
    18:00 +11°C° 0 mm 1 mps 713 mmHg 47%
    19:00 +11°C° 0 mm 1 mps 713 mmHg 48%
    20:00 +10°C° 0 mm 1 mps 713 mmHg 49%
    21:00 +10°C° 0 mm 1 mps 713 mmHg 50%
    22:00 +10°C° 0 mm 1 mps 713 mmHg 51%
    23:00 +10°C° 0 mm 1 mps 713 mmHg 51%
    Show more